Home > Weather > Tsingtao > Past weeks

Flag for China Past Weather in Tsingtao, Shandong, China — Yesterday and Last 2 Weeks

Now
90 °F

Fog.


Feels Like: 108 °F
Forecast: 83 / 90 °F
Wind: No wind

Location: Qingdao Airport

Current Time: Jul 30, 2016 at 7:50:39 AM

Latest Report: Jul 30, 2016 at 7:00 AM


Visibility: 3 mi

Pressure: 29.77 "Hg

Humidity: 75%

Dew Point: 81 °F

Location of TsingtaoLocation

Past Weather in Tsingtao — Graph

°F

Tsingtao Temperature Yesterday

Maximum temperature yesterday: 93 °F (at 11:00 AM)
Minimum temperature yesterday: 81 °F (at 5:00 AM)
Average temperature yesterday: 87 °F

High & Low Weather Summary for the Past Weeks

 TemperatureHumidityPressure
High99 °F (Jul 24, 1:00 PM)100% (Jul 15, 5:00 PM)29.80 "Hg (Jul 15, 5:00 PM)
Low68 °F (Jul 15, 2:00 PM)44% (Jul 24, 2:00 PM)29.50 "Hg (Jul 15, 5:00 PM)
Average82 °F79%29.65 "Hg
* Reported Jul 15 6:00 AM — Jul 30 6:00 AM, Tsingtao, Weather by CustomWeather, © 2016

Note: Actual official high and low records may vary slightly from our data, if they occured in-between our weather recording intervals... More about our weather records

Advertising

Tsingtao Weather History for the Previous 24 Hours

Scroll right to see more
 ConditionsComfort  
Time TempWeatherWind HumidityBarometerVisibility
6:00 AM
Sat, Jul 30
82 °FFog.1 mph89%29.74 "Hg3 mi
5:00 AM81 °FFog.1 mph89%29.74 "Hg3 mi
4:00 AM82 °FClear.1 mph84%29.74 "Hg4 mi
3:00 AM82 °FClear.3 mph89%29.74 "Hg4 mi
2:00 AM82 °FClear.1 mph89%29.74 "Hg4 mi
1:00 AM82 °FClear.3 mph89%29.74 "Hg4 mi
12:00 AM82 °FClear.6 mph89%29.74 "Hg4 mi
11:00 PM
Fri, Jul 29
84 °FClear.3 mph79%29.74 "Hg4 mi
10:00 PM84 °FClear.3 mph79%29.71 "Hg4 mi
9:00 PM84 °FClear.6 mph79%29.71 "Hg10 mi
8:00 PM84 °FClear.8 mph79%29.68 "Hg10 mi
7:00 PM86 °FSunny.6 mph75%29.68 "Hg10 mi
6:00 PM88 °FSunny.10 mph70%29.68 "Hg10 mi
5:00 PM91 °FSunny.8 mph63%29.65 "Hg10 mi
4:00 PM93 °FSunny.8 mph59%29.65 "Hg10 mi
3:00 PM93 °FSunny.8 mph63%29.68 "Hg10 mi
2:00 PM93 °FSunny.10 mph67%29.68 "Hg10 mi
1:00 PM93 °FPassing clouds.10 mph67%29.68 "HgN/A
12:00 PM93 °FPassing clouds.8 mph67%29.68 "HgN/A
11:00 AM93 °FPassing clouds.6 mph67%29.68 "HgN/A
10:00 AM91 °FPassing clouds.8 mph71%29.68 "HgN/A
9:00 AM88 °FSunny.6 mph70%29.68 "Hg10 mi
8:00 AM88 °FPassing clouds.3 mph70%29.68 "HgN/A
7:00 AM84 °FSunny.3 mph79%29.68 "Hg10 mi
Weather by CustomWeather, © 2016

See weather overviewHow to use our weather pages